This demonstration page uses our WeatherBlox Daily Observations layout. Learn more.

Left ArrowRight Arrow

34.16533, -84.80231

Hourly Observations for October 11, 2019

Temp ( °F °C ) Dew Point ( °F °C ) Humidity (%) Winds ( mph kmh ) Pressure ( in mb ) Visibility ( mi km ) Precip ( " mm )
12:53 am 00:53 Clear 59 15 56 13.3 90 90 Calm 30.11 1020 10 16 0.00 0.00
1:53 am 01:53 Clear 59 15 56 13.3 90 90 Calm 30.10 1019 10 16 0.00 0.00
2:53 am 02:53 Clear 60 15.6 57 13.9 90 90 Calm 30.09 1019 10 16 0.00 0.00
3:53 am 03:53 Clear 59 15 56 13.3 90 90 Calm 30.09 1019 9 14 0.00 0.00
4:53 am 04:53 Clear 58 14.4 55 12.8 90 90 Calm 30.09 1019 10 16 0.00 0.00
5:53 am 05:53 Clear 59 15 55 12.8 87 87 Calm 30.10 1019 10 16 0.00 0.00
6:53 am 06:53 Clear 59 15 55 12.8 87 87 Calm 30.12 1020 10 16 0.00 0.00
7:53 am 07:53 Sunny 59 15 55 12.8 87 87 Calm 30.13 1020 10 16 0.00 0.00
8:53 am 08:53 Sunny 62 16.7 57 13.9 84 84 Calm 30.15 1021 10 16 0.00 0.00
9:53 am 09:53 Sunny 67 19.4 57 13.9 71 71 SE 6 9 30.15 1021 10 16 0.00 0.00
10:53 am 10:53 Sunny 72 22.2 59 15 64 64 SE 6 9 30.15 1021 10 16 0.00 0.00
11:53 am 11:53 Partly Cloudy 76 24.4 58 14.4 54 54 VRB 6 9 30.14 1021 10 16 0.00 0.00
12:53 pm 12:53 Mostly Sunny 78 25.6 57 13.9 48 48 VRB 6 9 30.12 1020 10 16 0.00 0.00
1:53 pm 13:53 Sunny 80 26.7 55 12.8 42 42 SSE 9 15 30.09 1019 10 16 0.00 0.00
2:53 pm 14:53 Sunny 81 27.2 55 12.8 41 41 VRB 3 6 30.05 1018 10 16 0.00 0.00
3:53 pm 15:53 Sunny 82 27.8 55 12.8 40 40 VRB 7 11 30.02 1017 10 16 0.00 0.00
4:53 pm 16:53 Sunny 82 27.8 54 12.2 38 38 VRB 3 6 30.01 1016 10 16 0.00 0.00
5:53 pm 17:53 Sunny 80 26.7 54 12.2 41 41 SE 5 7 30.01 1016 10 16 0.00 0.00
6:53 pm 18:53 Mostly Sunny 73 22.8 57 13.9 57 57 Calm 30.02 1017 10 16 0.00 0.00
8:53 pm 20:53 Partly Cloudy 67 19.4 58 14.4 73 73 S 5 7 30.03 1017 10 16 0.00 0.00
9:53 pm 21:53 Mostly Clear 67 19.4 56 13.3 68 68 S 5 7 30.04 1017 10 16 0.00 0.00
10:53 pm 22:53 Partly Cloudy 66 18.9 57 13.9 73 73 Calm 30.04 1017 10 16 0.00 0.00
11:53 pm 23:53 Mostly Clear 69 20.6 55 12.8 61 61 SSE 8 13 30.01 1016 10 16 0.00 0.00

Powered by AerisWeather